Weather History for KPVC - April, 2012

Change the Weather History Date:

Thursday, April 12, 2012

  Actual Average Record
Temperature  
Mean Temperature 40 °F -  
Max Temperature 48 °F 49 °F 70 °F (1952)
Min Temperature 33 °F 37 °F 33 °F (1998)
Degree Days  
Heating Degree Days 24    
Moisture  
Dew Point 37 °F    
Average Humidity 76    
Maximum Humidity 81    
Minimum Humidity 66    
Precipitation  
Precipitation 0.00 in - - ()
Sea Level Pressure  
Sea Level Pressure 29.95 in    
Wind  
Wind Speed 7 mph (North)    
Max Wind Speed 15 mph    
Max Gust Speed 20 mph    
Visibility 10 miles    
Events      
Averages and records for this station are not official NWS values.
T = Trace of Precipitation, MM = Missing Value Source: NWS Daily Summary

Daily Weather History Graph

Daily Weather History Graph

Search for Another Location

Airport or City:

Trip Planner

Search our weather history database for the weather conditions in past years. The results will help you decide how hot, cold, wet, or windy it might be!

Date:

Astronomy

Apr. 12, 2012 Rise Set
Actual Time 6:04 AM EDT 7:19 PM EDT
Civil Twilight 5:35 AM EDT 7:48 PM EDT
Nautical Twilight 5:01 AM EDT 8:22 PM EDT
Astronomical Twilight 4:24 AM EDT 8:59 PM EDT
Moon 1:07 AM EDT (4/12) 10:52 AM EDT (4/12)
Length of Visible Light 14h 12m
Length of Day
13h 14m
Waning Gibbous, 59% of the Moon is Illuminated
Apr 12
Waning Gibbous
Apr 13
Last Quarter
Apr 21
New
Apr 29
First Quarter
May 5
Full

Hourly Weather History & Observations

Time (EDT) Temp. Windchill Dew Point Humidity Pressure Visibility Wind Dir Wind Speed Gust Speed Precip Events Conditions
12:15 AM 39.2 °F 37.0 °F 33.8 °F 81% 29.86 in 7.0 mi ENE 3.5 mph - N/A   Mostly Cloudy
12:35 AM 39.2 °F 37.0 °F 33.8 °F 81% 29.86 in 10.0 mi ENE 3.5 mph - N/A   Mostly Cloudy
12:55 AM 41.0 °F 39.0 °F 35.6 °F 81% 29.86 in 9.0 mi ENE 3.5 mph - N/A   Scattered Clouds
1:15 AM 41.0 °F 38.0 °F 35.6 °F 81% 29.87 in 10.0 mi NNE 4.6 mph - N/A   Mostly Cloudy
1:55 AM 44.6 °F 43.1 °F 39.2 °F 81% 29.86 in 10.0 mi NNE 3.5 mph - N/A   Overcast
2:15 AM 44.6 °F 42.2 °F 39.2 °F 81% 29.86 in 10.0 mi North 4.6 mph - N/A   Overcast
2:55 AM 42.8 °F 41.1 °F 37.4 °F 81% 29.86 in 10.0 mi NE 3.5 mph - N/A   Scattered Clouds
3:15 AM 39.2 °F - 33.8 °F 81% 29.86 in 8.0 mi Calm Calm - N/A   Clear
3:35 AM 37.4 °F - 32.0 °F 81% 29.86 in 2.5 mi Calm Calm - N/A   Clear
3:55 AM 37.4 °F 33.8 °F 30.2 °F 75% 29.86 in 10.0 mi North 4.6 mph - N/A   Clear
4:15 AM 33.8 °F 30.8 °F 28.4 °F 81% 29.86 in 2.0 mi NNE 3.5 mph - N/A   Clear
4:35 AM 35.6 °F 29.2 °F 28.4 °F 75% 29.87 in 9.0 mi North 8.1 mph - N/A   Clear
4:55 AM 42.8 °F 38.6 °F 37.4 °F 81% 29.87 in 10.0 mi North 6.9 mph - N/A   Partly Cloudy
5:15 AM 42.8 °F 39.3 °F 37.4 °F 81% 29.87 in 10.0 mi North 5.8 mph - N/A   Partly Cloudy
5:35 AM 44.6 °F 42.2 °F 37.4 °F 76% 29.87 in 10.0 mi North 4.6 mph - N/A   Clear
5:55 AM 44.6 °F 41.4 °F 37.4 °F 76% 29.88 in 10.0 mi North 5.8 mph - N/A   Clear
6:15 AM 44.6 °F 41.4 °F 37.4 °F 76% 29.89 in 10.0 mi North 5.8 mph - N/A   Clear
6:35 AM 44.6 °F 40.7 °F 37.4 °F 76% 29.89 in 10.0 mi North 6.9 mph - N/A   Mostly Cloudy
6:55 AM 44.6 °F 39.7 °F 37.4 °F 76% 29.90 in 10.0 mi North 9.2 mph - N/A   Overcast
7:15 AM 44.6 °F 39.7 °F 37.4 °F 76% 29.90 in 10.0 mi North 9.2 mph - N/A   Mostly Cloudy
7:55 AM 46.4 °F 40.7 °F 37.4 °F 71% 29.91 in 10.0 mi North 12.7 mph - N/A   Scattered Clouds
8:15 AM 46.4 °F 40.7 °F 39.2 °F 76% 29.91 in 10.0 mi North 12.7 mph - N/A   Partly Cloudy
8:35 AM 46.4 °F 40.1 °F 39.2 °F 76% 29.91 in 10.0 mi North 15.0 mph - N/A   Partly Cloudy
9:36 AM 46.4 °F 40.1 °F 39.2 °F 76% 29.94 in 10.0 mi North 15.0 mph 19.6 mph N/A   Mostly Cloudy
10:15 AM 48.2 °F - 37.4 °F 66% 29.95 in 10.0 mi NNE 11.5 mph 17.3 mph N/A   Mostly Cloudy
10:35 AM 46.4 °F 41.1 °F 39.2 °F 76% 29.95 in 10.0 mi North 11.5 mph 16.1 mph N/A   Overcast
10:55 AM 46.4 °F 40.4 °F 37.4 °F 71% 29.96 in 10.0 mi NNE 13.8 mph 17.3 mph N/A   Mostly Cloudy
11:15 AM 48.2 °F - 37.4 °F 66% 29.96 in 10.0 mi NNE 10.4 mph - N/A   Scattered Clouds
11:35 AM 48.2 °F - 39.2 °F 71% 29.95 in 10.0 mi NNE 11.5 mph - N/A   Mostly Cloudy
11:55 AM 48.2 °F - 39.2 °F 71% 29.96 in 10.0 mi NNE 10.4 mph - N/A   Overcast
12:15 PM 48.2 °F - 39.2 °F 71% 29.96 in 10.0 mi North 13.8 mph - N/A   Scattered Clouds
12:35 PM 46.4 °F 40.7 °F 39.2 °F 76% 29.96 in 10.0 mi NE 12.7 mph - N/A   Partly Cloudy
12:55 PM 46.4 °F 40.4 °F 39.2 °F 76% 29.96 in 10.0 mi NNE 13.8 mph - N/A   Mostly Cloudy
1:35 PM 46.4 °F 41.5 °F 39.2 °F 76% 29.96 in 10.0 mi NE 10.4 mph 17.3 mph N/A   Overcast
1:55 PM 48.2 °F - 39.2 °F 71% 29.97 in 10.0 mi NNE 11.5 mph - N/A   Mostly Cloudy
2:15 PM 48.2 °F - 39.2 °F 71% 29.97 in 10.0 mi NNE 11.5 mph - N/A   Overcast
2:35 PM 48.2 °F - 39.2 °F 71% 29.97 in 10.0 mi NNE 11.5 mph - N/A   Overcast
2:55 PM 48.2 °F - 39.2 °F 71% 29.97 in 10.0 mi NE 12.7 mph - N/A   Mostly Cloudy
3:15 PM 48.2 °F - 39.2 °F 71% 29.97 in 10.0 mi NNE 13.8 mph - N/A   Mostly Cloudy
3:35 PM 48.2 °F - 41.0 °F 76% 29.97 in 10.0 mi NE 12.7 mph - N/A   Scattered Clouds
3:55 PM 48.2 °F - 39.2 °F 71% 29.97 in 10.0 mi NE 11.5 mph - N/A   Partly Cloudy
4:35 PM 48.2 °F - 39.2 °F 71% 29.98 in 10.0 mi NE 9.2 mph - N/A   Clear
4:55 PM 48.2 °F - 39.2 °F 71% 29.99 in 10.0 mi NNE 5.8 mph - N/A   Clear
5:15 PM 46.4 °F 43.5 °F 39.2 °F 76% 30.00 in 10.0 mi NNE 5.8 mph - N/A   Clear
5:35 PM 46.4 °F 43.5 °F 39.2 °F 76% 30.00 in 10.0 mi NE 5.8 mph - N/A   Partly Cloudy
5:55 PM 46.4 °F 44.3 °F 37.4 °F 71% 30.01 in 10.0 mi North 4.6 mph - N/A   Scattered Clouds
6:15 PM 44.6 °F 42.2 °F 37.4 °F 76% 30.01 in 10.0 mi NNE 4.6 mph - N/A   Clear
6:35 PM 46.4 °F 42.9 °F 39.2 °F 76% 30.02 in 10.0 mi NNW 6.9 mph - N/A   Mostly Cloudy
7:15 PM 44.6 °F 40.2 °F 39.2 °F 81% 30.02 in 10.0 mi NNW 8.1 mph - N/A   Mostly Cloudy
7:35 PM 44.6 °F 41.4 °F 37.4 °F 76% 30.03 in 10.0 mi NNW 5.8 mph - N/A   Partly Cloudy
7:55 PM 44.6 °F 41.4 °F 37.4 °F 76% 30.03 in 10.0 mi NNW 5.8 mph - N/A   Clear
8:15 PM 44.6 °F 41.4 °F 37.4 °F 76% 30.04 in 10.0 mi NNW 5.8 mph - N/A   Clear
8:35 PM 44.6 °F 42.2 °F 37.4 °F 76% 30.04 in 10.0 mi North 4.6 mph - N/A   Clear
8:55 PM 44.6 °F 41.4 °F 37.4 °F 76% 30.05 in 10.0 mi North 5.8 mph - N/A   Clear
9:15 PM 44.6 °F 42.2 °F 37.4 °F 76% 30.05 in 10.0 mi NNW 4.6 mph - N/A   Clear
9:55 PM 42.8 °F 40.1 °F 37.4 °F 81% 30.05 in 10.0 mi NNW 4.6 mph - N/A   Clear
10:15 PM 42.8 °F 40.1 °F 37.4 °F 81% 30.06 in 10.0 mi NNW 4.6 mph - N/A   Clear
10:35 PM 42.8 °F 39.3 °F 37.4 °F 81% 30.06 in 10.0 mi NNW 5.8 mph - N/A   Partly Cloudy
10:55 PM 44.6 °F 41.4 °F 37.4 °F 76% 30.07 in 10.0 mi NW 5.8 mph - N/A   Partly Cloudy
11:15 PM 44.6 °F 40.2 °F 37.4 °F 76% 30.07 in 10.0 mi NNW 8.1 mph - N/A   Mostly Cloudy
11:35 PM 44.6 °F 40.2 °F 37.4 °F 76% 30.07 in 10.0 mi NNW 8.1 mph - N/A   Mostly Cloudy
11:55 PM 44.6 °F 39.7 °F 37.4 °F 76% 30.07 in 10.0 mi North 9.2 mph - N/A   Mostly Cloudy